[[{"header":{"parameterUnit":"m.s-1","parameterCategory":1,"la1":30.2991,"la2":30.254,"lo1":-89.0895,"lo2":-89.0444,"dy":0.0017,"dx":0.0017,"nx":28,"ny":28,"refTime":"2023-07-24T09:00:00:Z","depth":0,"parameterNumber":2,"parameterNumberName":"U-component_of_WINDS"},"data":[0,0,0,0,0,0,0,0,0,0,0,0,0,0,0,0,0,0,0,0,0,0,0,0,0,0,0,0,0,0,0,0,0,0,0,0,0,0,0,0,0,0,0,0,0,0,0,0,0,0,0,0,0,0,0,0,0,0,2.8459,2.8461,0,2.8571,2.8572,2.8573,2.8543,2.8541,2.8539,2.8537,2.8652,2.8657,2.8662,0,0,0,0,0,0,0,0,0,0,0,0,0,2.822,2.8225,2.8459,2.8461,2.8462,2.857,2.8572,2.8574,2.8544,2.8541,2.8538,2.8536,2.865,2.8656,2.8663,0,0,0,0,0,0,0,0,0,0,0,0,0,2.8327,2.8226,2.8459,2.846,2.8461,2.857,2.8572,2.8574,2.8544,2.8541,2.8538,2.8534,2.8648,2.8656,2.8663,2.8778,0,0,2.8687,2.869,0,0,0,0,0,0,0,0,2.8321,2.8336,2.8459,2.846,2.8462,2.854,2.853,2.8642,2.8545,2.8513,2.8537,2.8533,2.8617,2.8627,2.8656,2.8784,2.8789,2.8688,2.8692,2.8696,2.8698,0,0,0,0,0,0,0,2.8314,2.8331,2.8503,2.8461,2.8463,2.8455,2.8466,2.8551,2.8583,2.8515,2.8514,2.8527,2.8618,2.8648,2.8658,2.879,2.8688,2.8694,2.8699,2.8702,2.9014,2.9018,0,0,0,0,0,0,2.8305,2.8325,2.85,2.8507,2.8382,2.8462,2.8475,2.8518,2.8582,2.8588,2.853,2.8525,2.8637,2.8649,2.8662,2.8798,2.8696,2.8703,2.8707,2.901,2.9015,2.9019,0,0,0,0,0,0,2.83,2.8321,2.8495,2.8415,2.8437,2.847,2.8519,2.8522,2.8553,2.8592,2.8598,2.8555,2.8635,2.8651,2.8749,2.8802,2.8706,2.8713,2.9006,2.9012,2.9017,2.9072,0,0,0,0,0,0,2.8293,2.8319,2.8364,2.8417,2.8441,2.858,2.8522,2.8527,2.8566,2.8561,2.8618,2.8624,2.8633,2.8737,2.8756,2.881,2.8719,2.9002,2.9009,2.9015,2.9065,2.9079,2.909,0,0,0,0,0,2.8285,2.8376,2.8366,2.8387,2.8497,2.8584,2.8598,2.8606,2.857,2.8615,2.864,2.8622,2.8793,2.8747,2.8769,2.8826,2.8998,2.9007,2.9015,2.906,2.9076,2.9089,0,0,0,0,0,0,2.833,2.8383,2.8373,2.8483,2.8529,2.8578,2.8634,2.8623,2.868,2.8673,2.8682,2.8695,2.8794,2.882,2.8768,2.8939,2.889,2.8903,2.8918,2.8933,2.8945,2.8936,2.8726,0,0,0,0,0,2.8352,2.8417,2.8461,2.8554,2.8577,2.8602,2.864,2.8642,2.869,2.8709,2.8742,2.8789,2.8852,2.8895,2.8956,2.907,2.908,2.9119,2.9131,2.9141,2.9152,2.921,2.9227,2.9046,2.9046,2.9046,0,0,2.84,2.8437,2.8478,2.8564,2.8599,2.8666,2.8619,2.8692,2.8741,2.8721,2.8813,2.8839,2.8892,2.8997,2.9045,2.9022,2.9204,2.9152,2.9159,2.9164,2.9221,2.9238,2.9253,2.9051,2.905,2.9049,0,0,2.852,2.8555,2.8635,2.8671,2.8725,2.8741,2.876,2.8811,2.8826,2.8919,2.8904,2.8963,2.9074,2.9111,2.9145,2.9276,2.9261,2.9296,2.9359,2.9416,2.9431,2.9443,2.9487,2.9503,2.9307,2.9307,2.9307,0,2.8572,2.8672,2.8678,2.8752,2.8789,2.8773,2.8853,2.8888,2.8959,2.8985,2.8958,2.9095,2.913,2.9241,2.9273,2.9302,2.9323,2.9289,2.9428,2.9441,2.9453,2.9495,2.9512,2.9311,2.931,2.931,2.931,0,2.8732,2.8801,2.8859,2.8927,2.8971,2.9048,2.9065,2.9109,2.9107,2.9125,2.9219,2.926,2.9327,2.9355,2.9355,2.9466,2.9449,2.9426,2.9377,2.9473,2.9513,2.9529,2.9316,2.9315,2.9314,2.9313,0,0,2.8883,2.8952,2.8973,2.9002,2.9059,2.9112,2.9188,2.9253,2.9289,2.9339,2.9401,2.9494,2.9471,2.9509,2.9512,2.9563,2.9661,2.9532,2.9534,2.9552,2.9783,2.9798,2.9817,2.9652,2.9655,2.9657,2.9777,0,2.9006,2.9137,2.9145,2.9264,2.9326,2.931,2.9376,2.9417,2.9436,2.9491,2.9512,2.9576,2.9543,2.9565,2.9615,2.9638,2.9706,2.963,2.9708,2.9711,2.9693,2.9838,2.9856,2.9967,2.9793,2.9796,2.9798,0,2.9167,2.9219,2.9344,2.9389,2.9416,2.9474,2.9533,2.9587,2.9633,2.9643,2.9684,2.968,2.9756,2.9705,2.9809,2.9756,2.9789,2.9805,2.981,2.9816,2.9758,2.9846,3.0003,3.0019,2.9823,2.9821,2.9819,0,2.9261,2.9363,2.945,2.9476,2.9532,2.9573,2.9598,2.9641,2.9679,2.973,2.9754,2.9815,2.9847,2.9894,2.9905,2.9868,3.0008,2.9959,3.0016,3.0016,3.0045,3.0043,3.0207,3.007,3.007,3.007,3.0069,0,2.9396,2.9473,2.9493,2.9546,2.963,2.9638,2.9721,2.9744,2.9781,2.9838,2.9829,2.9883,2.9896,2.9951,2.9961,3.0044,3.0059,3.0068,3.0069,3.0068,3.0066,3.0088,3.0079,3.0074,3.0073,3.0072,3.0071,0,2.9515,2.9532,2.9625,2.967,2.9683,2.9743,2.978,2.9831,2.9848,2.9919,2.9937,2.9963,3.0028,3.0044,3.0122,3.0128,3.0225,3.022,3.0209,3.0208,3.0263,3.0257,3.0446,3.0469,3.0319,3.032,3.0321,0,2.9599,2.9657,2.9707,2.9744,2.977,2.983,2.9868,2.9877,2.9916,2.9972,3.0015,3.0079,3.013,3.0234,3.026,3.0319,3.0314,3.0376,3.0323,3.0318,3.0311,3.0307,3.0311,3.0385,3.0387,3.0388,3.0389,0,2.9746,2.975,2.9805,2.9861,2.9906,2.9952,2.9995,3.0026,3.0041,3.0086,3.0151,3.019,3.0268,3.0331,3.039,3.0415,3.0404,3.0406,3.0422,3.0419,3.0409,3.0412,3.0234,3.0401,3.04,3.0399,3.0398,3.0398,2.9848,2.9897,2.9939,2.9999,3.0032,3.0073,3.0121,3.0143,3.0197,3.0261,3.0263,3.0333,3.0376,3.0453,3.0482,3.0537,3.0518,3.0542,3.0547,3.0553,3.0556,3.0402,3.0548,3.0548,3.0548,3.0547,3.0547,0,2.9991,3.0017,3.0072,3.0132,3.0178,3.0164,3.021,3.025,3.0312,3.0352,3.0402,3.0475,3.0535,3.0565,3.0624,3.0662,3.0658,3.0677,3.0673,3.0678,3.0571,3.055,3.0679,3.0679,3.0679,3.0678,3.0678,3.0678,3.0071,3.0153,3.0162,3.026,3.0285,3.0353,3.038,3.0416,3.0448,3.053,3.0579,3.0598,3.0634,3.0694,3.0748,3.0755,3.0776,3.0797,3.0801,3.07,3.0686,3.0674,3.0654,3.0802,3.0802,3.0904,3.0905,3.0906]},{"header":{"parameterUnit":"m.s-1","parameterCategory":1,"la1":30.2991,"la2":30.254,"lo1":-89.0895,"lo2":-89.0444,"dy":0.0017,"dx":0.0017,"nx":28,"ny":28,"refTime":"2023-07-24T09:00:00:Z","depth":0,"parameterNumber":3,"parameterNumberName":"V-component_of_WINDS"},"data":[0,0,0,0,0,0,0,0,0,0,0,0,0,0,0,0,0,0,0,0,0,0,0,0,0,0,0,0,0,0,0,0,0,0,0,0,0,0,0,0,0,0,0,0,0,0,0,0,0,0,0,0,0,0,0,0,0,0,1.3762,1.3762,0,1.3778,1.3778,1.3779,1.3751,1.375,1.3749,1.3748,1.3766,1.3767,1.3768,0,0,0,0,0,0,0,0,0,0,0,0,0,1.3706,1.3707,1.3762,1.3762,1.3762,1.3778,1.3778,1.3779,1.3751,1.375,1.3749,1.3748,1.3765,1.3767,1.3768,0,0,0,0,0,0,0,0,0,0,0,0,0,1.3727,1.3707,1.3762,1.375,1.3749,1.3778,1.3778,1.3779,1.3751,1.375,1.3749,1.3747,1.3765,1.3767,1.3768,1.3809,0,0,1.3775,1.3775,0,0,0,0,0,0,0,0,1.3726,1.3729,1.3752,1.3751,1.375,1.3761,1.3765,1.3789,1.3752,1.3751,1.3748,1.3747,1.3765,1.3767,1.3773,1.381,1.3811,1.3775,1.3776,1.3777,1.3777,0,0,0,0,0,0,0,1.3724,1.3728,1.3768,1.3752,1.3751,1.3744,1.3746,1.3769,1.3766,1.3751,1.3749,1.3751,1.3765,1.3771,1.3773,1.3811,1.3775,1.3777,1.3778,1.3779,1.388,1.3881,0,0,0,0,0,0,1.3724,1.3727,1.3768,1.3769,1.3734,1.3746,1.3748,1.3759,1.3765,1.3765,1.3752,1.375,1.3769,1.3771,1.3774,1.382,1.3777,1.3779,1.378,1.3878,1.388,1.3881,0,0,0,0,0,0,1.3723,1.3728,1.3767,1.3747,1.3752,1.3749,1.3761,1.376,1.3767,1.3766,1.3766,1.376,1.3768,1.3771,1.38,1.3821,1.378,1.3781,1.3876,1.3879,1.3881,1.3915,0,0,0,0,0,0,1.3722,1.3728,1.3744,1.3748,1.3753,1.3793,1.3763,1.3761,1.377,1.3767,1.3774,1.3773,1.3767,1.3797,1.3802,1.3823,1.3783,1.3874,1.3877,1.388,1.3912,1.3918,1.3923,0,0,0,0,0,1.372,1.3753,1.3745,1.375,1.3773,1.3795,1.3797,1.3789,1.3772,1.3788,1.3787,1.3773,1.3818,1.38,1.3806,1.3827,1.3873,1.3877,1.388,1.3909,1.3917,1.3923,0,0,0,0,0,0,1.3752,1.3754,1.3744,1.378,1.3787,1.379,1.3809,1.3798,1.381,1.3807,1.3796,1.3798,1.3828,1.3831,1.3811,1.3866,1.3843,1.3847,1.3863,1.387,1.3876,1.3874,1.3785,0,0,0,0,0,1.3764,1.3781,1.3782,1.3813,1.3817,1.3813,1.3822,1.3815,1.3822,1.3825,1.3827,1.3834,1.3849,1.386,1.3875,1.3912,1.3912,1.3929,1.3935,1.394,1.3944,1.3962,1.3969,1.3892,1.3892,1.3892,0,0,1.3787,1.379,1.3802,1.382,1.3825,1.3843,1.3815,1.3836,1.3849,1.3828,1.3855,1.3857,1.3864,1.3897,1.3912,1.39,1.3965,1.3944,1.3948,1.3949,1.3966,1.3973,1.398,1.3895,1.3894,1.3894,0,0,1.3839,1.3844,1.387,1.3875,1.3882,1.3878,1.3884,1.3888,1.3888,1.3915,1.3899,1.3914,1.3942,1.3947,1.3954,1.4006,1.3993,1.4011,1.404,1.4058,1.4064,1.4069,1.4087,1.4093,1.4015,1.4015,1.4015,0,1.3868,1.3895,1.3885,1.3906,1.3914,1.3894,1.392,1.3925,1.3937,1.3942,1.3929,1.3962,1.3966,1.3999,1.4011,1.4018,1.4023,1.401,1.4064,1.4069,1.4074,1.409,1.4097,1.4017,1.4017,1.4016,1.4016,0,1.3929,1.3947,1.3967,1.3978,1.3988,1.4011,1.4004,1.4015,1.4007,1.4005,1.4031,1.4035,1.4049,1.4056,1.4049,1.4088,1.408,1.4066,1.4042,1.4083,1.4099,1.4105,1.402,1.4019,1.4018,1.4018,0,0,1.4003,1.4006,1.4014,1.4017,1.4023,1.4037,1.4059,1.4072,1.4081,1.409,1.4107,1.413,1.4116,1.4123,1.4116,1.4132,1.4171,1.4115,1.4115,1.4124,1.4212,1.4222,1.423,1.4162,1.4163,1.4164,1.4211,0,1.4054,1.4091,1.4082,1.4119,1.4135,1.4116,1.4135,1.414,1.4138,1.4151,1.4149,1.4165,1.4146,1.415,1.4165,1.4163,1.4188,1.4159,1.4178,1.4178,1.4176,1.4238,1.4249,1.4293,1.4217,1.4218,1.4219,0,1.4118,1.4128,1.4166,1.4167,1.4173,1.4191,1.4201,1.4214,1.4219,1.4216,1.4223,1.4212,1.4233,1.4209,1.4237,1.4218,1.4225,1.4225,1.4226,1.4227,1.4201,1.424,1.4307,1.4314,1.4228,1.4228,1.4227,0,1.4167,1.4189,1.4214,1.4218,1.4221,1.4233,1.4234,1.4238,1.4246,1.4255,1.4259,1.4271,1.4277,1.4286,1.4278,1.4262,1.4307,1.4283,1.4305,1.4305,1.4315,1.4314,1.4383,1.4321,1.4321,1.432,1.432,0,1.4224,1.4248,1.4236,1.4252,1.4277,1.4266,1.4291,1.4291,1.4294,1.4308,1.4293,1.4307,1.4296,1.4309,1.4303,1.4327,1.433,1.4328,1.4326,1.4329,1.4329,1.4332,1.4329,1.4322,1.4322,1.4321,1.4321,0,1.4283,1.4276,1.4302,1.4301,1.4301,1.432,1.4319,1.4333,1.4329,1.4348,1.4352,1.4346,1.436,1.4353,1.4369,1.4364,1.4394,1.4388,1.4392,1.439,1.4412,1.4409,1.4485,1.4494,1.4427,1.4427,1.4428,0,1.4319,1.4337,1.4337,1.4346,1.4348,1.4362,1.4369,1.4358,1.4366,1.4372,1.4385,1.4398,1.4408,1.4431,1.4428,1.4439,1.4433,1.4459,1.4435,1.4436,1.4432,1.4431,1.4432,1.4464,1.4465,1.4465,1.4466,0,1.4385,1.438,1.4391,1.44,1.4409,1.4416,1.4422,1.4429,1.4418,1.4428,1.4442,1.445,1.4464,1.4476,1.4486,1.4487,1.4474,1.4473,1.4479,1.4481,1.4482,1.4481,1.4404,1.4472,1.4471,1.4471,1.447,1.447,1.4433,1.4446,1.4448,1.446,1.4463,1.4469,1.4481,1.4478,1.4489,1.45,1.4493,1.4509,1.4512,1.4522,1.4525,1.4537,1.4527,1.4535,1.4537,1.4539,1.4541,1.4481,1.4539,1.4539,1.4539,1.4539,1.4539,0,1.4496,1.4495,1.4507,1.4514,1.4524,1.451,1.4515,1.4524,1.4538,1.4542,1.4551,1.4566,1.4577,1.4575,1.4585,1.4595,1.4589,1.4598,1.4597,1.4597,1.4551,1.4544,1.4602,1.4602,1.4602,1.4602,1.4602,1.4602,1.453,1.4552,1.4547,1.457,1.457,1.4584,1.4588,1.4593,1.4595,1.4612,1.4621,1.4619,1.462,1.463,1.464,1.4639,1.4643,1.4653,1.465,1.4607,1.46,1.4594,1.4588,1.4654,1.4655,1.4695,1.4695,1.4696]}]]